Location: Sobotiste
(48.7170°N, 17.4000°E)
Time: 15:22:05
(UTC+01:00)

Tiangong 2 - Visible Passes

Search period start: 19 November 2018 00:00
Search period end: 29 November 2018 00:00
Orbit: 382 x 393 km, 42.8° (Epoch: 19 November)

Date Brightness Start Highest point End Pass type
(mag) Time Alt. Az. Time Alt. Az. Time Alt. Az.
24 Nov 4.2 06:29:13 10° S 06:30:44 13° SSE 06:32:15 10° SE visible
26 Nov 3.8 06:07:49 10° SSW 06:10:03 18° SSE 06:12:18 10° ESE visible
27 Nov 4.0 05:10:05 10° S 05:11:41 13° SSE 05:13:15 10° SE visible
28 Nov 3.2 05:46:49 10° SW 05:49:23 22° SSE 05:51:59 10° ESE visible
